{"data":{"norad_id":66856,"epoch":"2026-09-20T11:49:39.065664Z","epoch_age_seconds":84650,"freshness":"FRESH","line1":"1 66856U 25281J   26263.49281326  .00014993  00000+0  55308-3 0  9992","line2":"2 66856  42.9994 323.7172 0000948 153.9256 206.1644 15.27590205 45971","mean_motion":15.27590205,"eccentricity":9.48e-5,"inclination_deg":42.9994,"raan_deg":323.7172,"arg_perigee_deg":153.9256,"mean_anomaly_deg":206.1644,"bstar":0.00055308,"rev_number":4597,"period_min":94.266118968732,"perigee_km":482.36810122346,"apogee_km":483.66897631361,"semimajor_km":6861.1555387685,"source":"CELESTRAK","updated_at":"2026-09-21T09:00:36.027203Z"}}